timestamp,wind_dir_avg,wind_spd_avg,wind_spd_max_dir,wind_spd_gust,battery_voltage,lat,long
2023-02-03 00:04:00+00:00,279.0,7.04,277.0,9.39,12.33,47.59359,-54.27349
2023-02-03 00:14:00+00:00,269.0,6.86,270.0,7.91,12.33,47.59359,-54.27349
2023-02-03 00:24:00+00:00,268.0,6.28,265.0,7.09,12.33,47.59359,-54.27349
2023-02-03 00:34:00+00:00,264.0,5.63,265.0,6.55,12.33,47.59359,-54.27349
2023-02-03 00:44:00+00:00,270.0,5.08,274.0,5.86,12.33,47.59359,-54.27349
2023-02-03 00:54:00+00:00,256.0,5.29,254.0,6.49,12.33,47.59359,-54.27349
2023-02-03 01:04:00+00:00,252.0,6.13,250.0,7.58,12.33,47.59359,-54.27349
2023-02-03 01:14:00+00:00,262.0,6.79,262.0,7.66,12.25,47.59359,-54.27349
2023-02-03 01:24:00+00:00,260.0,7.67,259.0,8.49,12.25,47.59359,-54.27349
2023-02-03 01:34:00+00:00,267.0,7.51,264.0,8.47,12.25,47.59359,-54.27349
2023-02-03 01:44:00+00:00,277.0,6.63,281.0,7.39,12.25,47.59359,-54.27349
2023-02-03 01:54:00+00:00,263.0,6.15,262.0,7.55,12.25,47.59359,-54.27349
2023-02-03 02:04:00+00:00,263.0,6.57,263.0,7.44,12.25,47.59359,-54.27349
2023-02-03 02:14:00+00:00,249.0,5.31,265.0,6.98,12.25,47.59359,-54.27349
2023-02-03 02:24:00+00:00,256.0,5.38,270.0,7.12,12.25,47.59359,-54.27349
2023-02-03 02:34:00+00:00,234.0,4.64,242.0,8.14,12.25,47.59359,-54.27349
2023-02-03 02:44:00+00:00,252.0,5.26,253.0,7.29,12.25,47.59359,-54.27349
2023-02-03 02:54:00+00:00,233.0,6.15,244.0,7.97,12.25,47.59359,-54.27349
2023-02-03 03:04:00+00:00,249.0,7.81,248.0,8.92,12.25,47.59359,-54.27349
2023-02-03 03:14:00+00:00,249.0,7.79,247.0,9.24,12.17,47.59359,-54.27349
2023-02-03 03:24:00+00:00,254.0,9.06,241.0,10.18,12.17,47.59359,-54.27349
2023-02-03 03:34:00+00:00,255.0,7.75,254.0,9.24,12.17,47.59359,-54.27349
2023-02-03 03:44:00+00:00,244.0,8.03,238.0,9.68,12.17,47.59359,-54.27349
2023-02-03 03:54:00+00:00,244.0,8.58,247.0,9.76,12.17,47.59359,-54.27349
2023-02-03 04:04:00+00:00,235.0,5.88,245.0,9.29,12.17,47.59359,-54.27349
2023-02-03 04:14:00+00:00,246.0,8.41,253.0,10.37,12.17,47.59359,-54.27349
2023-02-03 04:24:00+00:00,240.0,8.7,237.0,9.88,12.17,47.59359,-54.27349
2023-02-03 04:34:00+00:00,221.0,7.01,231.0,10.08,12.17,47.59359,-54.27349
2023-02-03 04:44:00+00:00,208.0,5.58,218.0,7.48,12.17,47.59359,-54.27349
2023-02-03 04:54:00+00:00,217.0,4.86,248.0,7.85,12.17,47.59359,-54.27349
2023-02-03 05:04:00+00:00,209.0,5.69,238.0,9.34,12.17,47.59359,-54.27349
2023-02-03 05:14:00+00:00,203.0,5.79,227.0,6.83,12.17,47.59359,-54.27349
2023-02-03 05:24:00+00:00,201.0,6.12,211.0,7.6,12.17,47.59359,-54.27349
2023-02-03 05:34:00+00:00,211.0,5.67,217.0,7.38,12.17,47.59359,-54.27349
2023-02-03 05:44:00+00:00,220.0,6.12,217.0,7.02,12.17,47.59359,-54.27349
2023-02-03 05:54:00+00:00,218.0,5.69,228.0,6.8,12.17,47.59359,-54.27349
2023-02-03 06:04:00+00:00,225.0,6.27,220.0,7.41,12.17,47.59359,-54.27349
2023-02-03 06:14:01+00:00,222.0,5.88,219.0,7.58,12.09,47.59359,-54.27349
2023-02-03 06:24:01+00:00,227.0,5.81,215.0,7.21,12.09,47.59359,-54.27349
2023-02-03 06:34:01+00:00,249.0,4.94,250.0,5.97,12.09,47.59359,-54.27349
2023-02-03 06:44:01+00:00,226.0,5.02,225.0,6.72,12.09,47.59359,-54.27349
2023-02-03 06:54:01+00:00,222.0,8.57,228.0,10.3,12.09,47.59359,-54.27349
2023-02-03 07:04:01+00:00,227.0,7.7,230.0,8.88,12.09,47.59359,-54.27349
2023-02-03 07:14:00+00:00,228.0,8.5,217.0,13.1,12.09,47.59359,-54.27349
2023-02-03 07:24:00+00:00,213.0,12.27,214.0,13.65,12.09,47.59359,-54.27349
2023-02-03 07:34:00+00:00,231.0,8.93,252.0,12.89,12.09,47.59359,-54.27349
2023-02-03 07:44:00+00:00,268.0,8.25,272.0,9.54,12.09,47.59359,-54.27349
2023-02-03 07:54:00+00:00,261.0,3.0,262.0,5.54,12.09,47.59359,-54.27349
2023-02-03 08:04:00+00:00,247.0,3.51,259.0,5.3,12.09,47.59359,-54.27349
2023-02-03 08:14:01+00:00,257.0,4.03,251.0,4.87,12.09,47.59359,-54.27349
2023-02-03 08:24:01+00:00,241.0,3.61,269.0,5.16,12.09,47.59359,-54.27349
2023-02-03 08:34:01+00:00,256.0,3.93,256.0,4.42,12.09,47.59359,-54.27349
2023-02-03 08:44:01+00:00,239.0,3.69,235.0,4.48,12.09,47.59359,-54.27349
2023-02-03 08:54:01+00:00,219.0,4.18,223.0,4.96,12.09,47.59359,-54.27349
2023-02-03 09:04:01+00:00,196.0,12.58,197.0,13.86,12.09,47.59359,-54.27349
2023-02-03 09:14:00+00:00,273.0,4.91,272.0,7.88,12.09,47.59359,-54.27349
2023-02-03 09:24:00+00:00,268.0,2.89,269.0,3.52,12.09,47.59359,-54.27349
2023-02-03 09:34:00+00:00,253.0,4.41,256.0,5.43,12.09,47.59359,-54.27349
2023-02-03 09:44:00+00:00,242.0,4.39,239.0,5.81,12.09,47.59359,-54.27349
2023-02-03 09:54:00+00:00,225.0,3.99,237.0,5.97,12.09,47.59359,-54.27349
2023-02-03 10:04:00+00:00,230.0,4.25,243.0,6.23,12.09,47.59359,-54.27349
2023-02-03 10:14:00+00:00,232.0,5.42,227.0,6.51,12.09,47.59359,-54.27349
2023-02-03 10:24:00+00:00,227.0,4.7,225.0,5.26,12.09,47.59359,-54.27349
2023-02-03 10:34:00+00:00,230.0,6.01,228.0,6.9,12.09,47.59359,-54.27349
2023-02-03 10:44:00+00:00,236.0,5.03,238.0,5.61,12.09,47.59359,-54.27349
2023-02-03 10:54:00+00:00,240.0,4.27,240.0,4.65,12.09,47.59359,-54.27349
2023-02-03 11:04:00+00:00,226.0,4.92,217.0,5.62,12.09,47.59359,-54.27349
2023-02-03 11:14:00+00:00,227.0,5.95,216.0,7.01,12.09,47.59359,-54.27349
2023-02-03 11:24:00+00:00,214.0,9.4,205.0,11.19,12.09,47.59359,-54.27349
2023-02-03 11:34:00+00:00,207.0,10.1,202.0,11.92,12.09,47.59359,-54.27349
2023-02-03 11:44:00+00:00,200.0,10.89,209.0,12.08,12.09,47.59359,-54.27349
2023-02-03 11:54:00+00:00,178.0,7.23,184.0,8.49,12.09,47.59359,-54.27349
2023-02-03 12:04:00+00:00,178.0,7.26,174.0,8.74,12.09,47.59359,-54.27349
2023-02-03 12:14:00+00:00,179.0,7.24,174.0,8.05,12.49,47.59359,-54.27349
2023-02-03 12:24:00+00:00,181.0,6.63,183.0,7.54,12.49,47.59359,-54.27349
2023-02-03 12:34:00+00:00,175.0,7.13,165.0,8.11,12.49,47.59359,-54.27349
2023-02-03 12:44:00+00:00,168.0,8.74,166.0,9.72,12.49,47.59359,-54.27349
2023-02-03 12:54:00+00:00,168.0,8.83,168.0,9.91,12.49,47.59359,-54.27349
2023-02-03 13:04:00+00:00,170.0,10.76,175.0,12.29,12.49,47.59359,-54.27349
2023-02-03 13:14:00+00:00,169.0,11.01,171.0,12.05,12.81,47.59359,-54.27349
2023-02-03 13:24:00+00:00,176.0,8.8,175.0,10.39,12.81,47.59359,-54.27349
2023-02-03 13:34:00+00:00,173.0,11.3,173.0,12.8,12.81,47.59359,-54.27349
2023-02-03 13:44:00+00:00,173.0,10.72,174.0,12.23,12.81,47.59359,-54.27349
2023-02-03 13:54:00+00:00,172.0,10.51,175.0,11.69,12.81,47.59359,-54.27349
2023-02-03 14:04:00+00:00,173.0,11.74,172.0,12.7,12.81,47.59359,-54.27349
2023-02-03 14:14:00+00:00,175.0,11.09,167.0,12.74,12.97,47.59359,-54.27349
2023-02-03 14:24:00+00:00,176.0,13.56,173.0,15.85,12.97,47.59359,-54.27349
2023-02-03 14:34:00+00:00,170.0,12.64,157.0,14.14,12.97,47.59359,-54.27349
2023-02-03 14:44:00+00:00,175.0,12.24,180.0,13.5,12.97,47.59359,-54.27349
2023-02-03 14:54:00+00:00,177.0,12.01,168.0,14.36,12.97,47.59359,-54.27349
2023-02-03 15:04:00+00:00,173.0,11.79,170.0,14.58,12.97,47.59359,-54.27349
2023-02-03 15:14:00+00:00,174.0,12.92,173.0,13.96,12.65,47.59359,-54.27349
2023-02-03 15:24:00+00:00,177.0,14.6,177.0,17.0,12.65,47.59359,-54.27349
2023-02-03 15:34:00+00:00,174.0,15.97,171.0,18.45,12.65,47.59359,-54.27349
2023-02-03 15:44:00+00:00,176.0,16.99,184.0,20.06,12.65,47.59359,-54.27349
2023-02-03 15:54:00+00:00,175.0,17.09,176.0,20.43,12.65,47.59359,-54.27349
2023-02-03 16:04:00+00:00,177.0,19.33,175.0,22.76,12.65,47.59359,-54.27349
2023-02-03 16:14:00+00:00,180.0,17.87,176.0,21.82,12.57,47.59359,-54.27349
2023-02-03 16:24:00+00:00,176.0,16.15,172.0,18.18,12.57,47.59359,-54.27349
2023-02-03 16:34:00+00:00,176.0,16.81,179.0,19.45,12.57,47.59359,-54.27349
2023-02-03 16:44:00+00:00,180.0,12.61,176.0,15.08,12.57,47.59359,-54.27349
2023-02-03 16:54:00+00:00,180.0,13.67,170.0,15.57,12.57,47.59359,-54.27349
2023-02-03 17:04:00+00:00,186.0,13.64,187.0,16.73,12.57,47.59359,-54.27349
2023-02-03 17:14:00+00:00,180.0,14.3,175.0,17.55,12.57,47.59359,-54.27349
2023-02-03 17:24:00+00:00,179.0,13.67,185.0,15.62,12.57,47.59359,-54.27349
2023-02-03 17:34:00+00:00,170.0,16.35,179.0,22.38,12.57,47.59359,-54.27349
2023-02-03 17:44:00+00:00,177.0,13.86,152.0,16.77,12.57,47.59359,-54.27349
2023-02-03 17:54:00+00:00,166.0,14.93,148.0,20.03,12.57,47.59359,-54.27349
2023-02-03 18:04:00+00:00,165.0,14.34,165.0,15.86,12.57,47.59359,-54.27349
2023-02-03 18:14:00+00:00,160.0,11.88,146.0,13.89,12.41,47.59359,-54.27349
2023-02-03 18:24:00+00:00,156.0,12.95,175.0,15.52,12.41,47.59359,-54.27349
2023-02-03 18:34:00+00:00,315.0,0.01,145.0,0.0,12.41,47.59359,-54.27349
2023-02-03 18:44:00+00:00,153.0,12.59,139.0,15.21,12.41,47.59359,-54.27349
2023-02-03 18:54:00+00:00,147.0,9.82,148.0,13.38,12.41,47.59359,-54.27349
2023-02-03 19:04:00+00:00,163.0,9.54,157.0,12.03,12.41,47.59359,-54.27349
2023-02-03 20:14:00+00:00,117.0,9.47,112.0,10.6,12.17,47.59359,-54.27349
2023-02-03 20:24:00+00:00,129.0,9.34,120.0,12.49,12.17,47.59359,-54.27349
2023-02-03 20:34:00+00:00,143.0,10.21,137.0,14.1,12.17,47.59359,-54.27349
2023-02-03 20:44:00+00:00,146.0,9.46,132.0,12.21,12.17,47.59359,-54.27349
2023-02-03 20:54:00+00:00,150.0,10.38,136.0,12.85,12.17,47.59359,-54.27349
2023-02-03 21:04:00+00:00,138.0,12.23,135.0,14.25,12.17,47.59359,-54.27349
2023-02-03 21:14:00+00:00,142.0,12.41,138.0,14.43,12.17,47.59359,-54.27349
2023-02-03 21:24:00+00:00,157.0,15.05,150.0,18.92,12.17,47.59359,-54.27349
2023-02-03 21:34:00+00:00,169.0,13.8,174.0,16.2,12.17,47.59359,-54.27349
2023-02-03 21:44:00+00:00,182.0,14.76,178.0,17.72,12.17,47.59359,-54.27349
2023-02-03 21:54:00+00:00,194.0,14.42,196.0,18.59,12.17,47.59359,-54.27349
2023-02-03 22:04:00+00:00,205.0,18.56,199.0,21.59,12.17,47.59359,-54.27349
2023-02-03 22:14:00+00:00,214.0,15.72,217.0,18.04,12.09,47.59359,-54.27349
2023-02-03 22:24:00+00:00,220.0,13.09,220.0,15.17,12.09,47.59359,-54.27349
2023-02-03 22:34:00+00:00,216.0,11.64,217.0,14.03,12.09,47.59359,-54.27349
2023-02-03 22:44:00+00:00,216.0,12.68,218.0,15.39,12.09,47.59359,-54.27349
2023-02-03 22:54:00+00:00,224.0,11.59,220.0,13.41,12.09,47.59359,-54.27349
2023-02-03 23:04:00+00:00,228.0,10.96,230.0,13.52,12.09,47.59359,-54.27349
2023-02-03 23:14:00+00:00,230.0,11.34,222.0,13.53,12.09,47.59359,-54.27349
2023-02-03 23:24:00+00:00,238.0,10.81,238.0,12.63,12.09,47.59359,-54.27349
2023-02-03 23:34:00+00:00,253.0,11.53,253.0,13.07,12.09,47.59359,-54.27349
2023-02-03 23:44:00+00:00,248.0,11.71,249.0,13.18,12.09,47.59359,-54.27349
2023-02-03 23:54:00+00:00,246.0,8.68,248.0,10.12,12.09,47.59359,-54.27349
